Location: Peebles
(55.6412°N, 3.1714°W)
Time: 07:48:25
(UTC+00:00)

COSMOS 2251 DEB - Pass Details

Date: 30 November 2022
Orbit: 738 x 761 km, 74.0° (Epoch: 29 January)

Event Time Altitude Azimuth Distance (km) Brightness Sun altitude
Exits shadow 07:10:43 - 323° (NW) 2,459 ? -8.5°
Reaches altitude 10° 07:12:34 10° 342° (NNW) 2,260 ? -8.3°
Maximum altitude 07:13:14 10° 350° (N) 2,244 ? -8.2°
Drops below altitude 10° 07:13:55 10° 358° (N) 2,260 ? -8.1°
Sets 07:18:58 0° 41° (NE) 3,188 ? -7.5°
